MDT,Max TemperatureF,Mean TemperatureF,Min TemperatureF,Max Dew PointF,MeanDew PointF,Min DewpointF,Max Humidity, Mean Humidity, Min Humidity, Max Sea Level PressureIn, Mean Sea Level PressureIn, Min Sea Level PressureIn, Max VisibilityMiles, Mean VisibilityMiles, Min VisibilityMiles, Max Wind SpeedMPH, Mean Wind SpeedMPH, Max Gust SpeedMPH,PrecipitationIn, CloudCover, Events, WindDirDegrees
2013-4-1,64,47,30,27,15,7,48,28,12,30.14,30.07,29.97,10,10,10,22,6,26,0.00,1,,224
2013-4-2,60,45,30,25,15,9,56,30,16,30.06,29.99,29.89,10,10,10,25,8,33,0.00,2,,208
2013-4-3,55,42,30,28,24,19,75,53,28,30.23,30.13,30.06,10,10,10,18,7,23,0.00,4,,340
2013-4-4,66,44,21,25,17,10,80,39,13,30.31,30.24,30.17,10,10,8,13,5,18,0.00,0,,327
2013-4-5,69,48,28,19,16,10,47,27,13,30.22,30.08,29.94,10,10,8,29,7,38,0.00,1,,291
2013-4-6,66,48,30,27,20,14,60,35,17,30.10,30.02,29.95,10,10,10,22,8,26,0.00,2,,310
2013-4-7,66,52,37,25,18,9,48,28,14,30.01,29.93,29.86,10,10,10,21,7,29,0.00,3,,299
2013-4-8,66,47,28,25,18,10,48,30,15,29.86,29.68,29.48,10,10,3,31,10,51,0.00,2,,214
2013-4-9,50,41,32,30,26,21,87,64,37,29.86,29.66,29.48,10,9,1,22,10,31,0.20,7,Thunderstorm,171
2013-4-10,42,34,26,28,23,18,93,67,39,29.96,29.89,29.84,10,10,5,20,10,28,0.00,6,,239
2013-4-11,57,37,17,36,21,12,93,58,28,29.98,29.92,29.83,10,10,10,25,5,30,0.00,3,,310
2013-4-12,60,43,26,34,24,16,93,54,20,30.03,29.97,29.92,10,10,10,18,6,25,0.00,3,,318
2013-4-13,64,44,23,25,18,10,80,38,15,30.03,29.88,29.71,10,10,10,28,9,33,0.00,1,,275
2013-4-14,62,50,39,25,22,18,45,30,20,29.77,29.72,29.65,10,10,10,37,18,44,0.00,3,,269
2013-4-15,69,55,41,25,21,16,42,28,14,29.84,29.77,29.68,10,10,10,30,12,40,0.00,2,,224
2013-4-16,69,56,42,21,15,3,32,20,11,29.90,29.82,29.70,10,10,7,37,17,46,0.00,0,,218
2013-4-17,53,40,28,30,19,1,87,50,19,29.92,29.81,29.72,10,9,2,29,7,36,0.00,4,,232
2013-4-18,35,24,14,21,14,5,80,62,38,30.22,30.03,29.92,10,10,2,17,8,24,0.01,4,,309
2013-4-19,55,30,6,10,6,0,92,36,14,30.30,30.17,30.05,10,10,10,20,8,29,0.00,1,,283
2013-4-20,55,42,30,28,16,5,60,33,23,30.11,30.02,29.94,10,10,10,17,6,40,0.00,5,Thunderstorm,330
2013-4-21,66,44,21,28,15,-2,80,39,11,30.22,30.14,30.06,10,10,10,23,6,30,0.00,0,,320
2013-4-22,71,48,24,19,14,5,47,23,12,30.12,30.01,29.89,10,10,9,33,10,46,0.00,1,,278
2013-4-23,57,42,24,28,17,0,57,35,11,30.15,29.98,29.88,10,10,10,30,15,41,0.00,3,,250
2013-4-24,62,38,15,18,7,-6,59,31,11,30.24,30.17,30.10,10,10,10,21,6,26,0.00,0,,268
2013-4-25,64,50,35,39,22,10,81,40,24,30.24,30.16,30.01,10,10,10,28,7,31,0.00,5,,42
2013-4-26,62,50,37,37,31,25,93,59,25,30.35,30.23,30.13,10,10,9,21,6,29,0.02,4,,55
2013-4-27,66,46,26,28,21,12,75,40,16,30.37,30.29,30.19,10,10,10,15,4,23,0.00,1,,357
2013-4-28,73,50,26,21,13,3,51,25,10,30.23,30.14,30.01,10,10,10,16,6,22,0.00,0,,341
2013-4-29,77,55,33,21,15,9,41,22,11,30.08,29.99,29.89,10,10,10,23,7,34,0.00,0,,322
2013-4-30,78,56,33,21,15,9,38,21,10,30.00,29.92,29.86,10,10,10,26,9,37,0.00,0,,299